Regional Weather Roundup
Issued by NWS Green Bay, WI

Home | Current Version | Previous Version | Text Only | Print | Product List | Glossary On
Versions: 1 2 3 4 5 6 7 8 9 10 11 12 13 14 15 16 17 18 19 20 21 22 23 24 25 26 27 28 29 30 31 32 33 34 35 36 37 38 39 40 41 42 43 44 45 46 47 48 49 50
000
ASUS43 KGRB 021511
RWRGRB

NORTH-CENTRAL AND NORTHEAST WISCONSIN REGIONAL WEATHER ROUNDUP
NATIONAL WEATHER SERVICE GREEN BAY WI
1000 AM CDT TUE JUN 02 2015

WIZ005-009-010>012-018-019-021600-
NORTH CENTRAL WISCONSIN

CITY           SKY/WX    TMP DP  RH WIND       PRES   REMARKS
IRONWOOD       PTSUNNY   61  37  41 S7        30.09F
MANITOWISH WTR PTSUNNY   59  39  48 S8        30.14F
ARBOR VITAE    MOSUNNY   60  40  47 S9        30.15F
EAGLE RIVER    PTSUNNY   59  35  41 S7        30.16F
LAND O LAKES   PTSUNNY   60  35  38 SW7       30.16F
RHINELANDER    MOSUNNY   60  35  39 S9        30.17F
PHILLIPS       SUNNY     60  40  46 S8        30.14F
ANTIGO         SUNNY     58  41  52 S8        30.18F
TOMAHAWK       SUNNY     60  41  49 S6        30.17F
MERRILL        NOT AVBL
$$

WIZ013-073-021600-
NORTHEAST WISCONSIN

CITY           SKY/WX    TMP DP  RH WIND       PRES   REMARKS
IRON MOUNTAIN  MOSUNNY   62  32  32 VRB7      30.17F
MARINETTE      MOSUNNY   61  39  44 SE7       30.20F
OCONTO         MOSUNNY   62  44  52 CALM      30.19F
$$

WIZ017-030-035>037-045-021600-
CENTRAL WISCONSIN

CITY           SKY/WX    TMP DP  RH WIND       PRES   REMARKS
MEDFORD        SUNNY     57  40  52 S9        30.17S
WAUSAU         SUNNY     59  41  51 S8        30.16F
MOSINEE        SUNNY     57  43  58 S9        30.19F
MARSHFIELD     SUNNY     60  38  43 S12       30.17F
WISC RAPIDS    SUNNY     63  38  39 S10       30.18F
STEVENS POINT  SUNNY     60  40  47 S8        30.18F
WAUPACA        SUNNY     64  39  39 S8        30.19F
SHAWANO        SUNNY     63  41  44 S3        30.19F
CLINTONVILLE   SUNNY     61  41  48 SE8       30.19F
$$

WIZ038-039-048-051-021600-
FOX VALLEY

CITY           SKY/WX    TMP DP  RH WIND       PRES   REMARKS
NWS GREEN BAY  SUNNY     63  43  48 SE3       30.20F
APPLETON       MOSUNNY   63  37  39 SE9       30.21F
OSHKOSH        SUNNY     63  42  46 VRB5      30.19F
FOND DU LAC    SUNNY     64  43  46 SE6       30.19F
$$

WIZ022-050-052-021600-
EAST CENTRAL WISCONSIN

CITY           SKY/WX    TMP DP  RH WIND       PRES   REMARKS
STURGEON BAY   MOSUNNY   61  39  44 S3        30.23F
MANITOWOC      SUNNY     57  44  62 E8        30.21F
SHEBOYGAN      SUNNY     62  45  53 S5        30.21F
$$

LMZ563-521-522-541>543-021600-
LAKESHORE

STATION/POSITION TIME  TEMP    WIND        PRES    VSBY  WAVE
                       AIR SEA DIR/SP/G                  HT/PER
                 (UTC) (F)     (DEG/KT/KT) (MB)    (MI)  (FT/S)
SHEBOYGAN LKSHOR 1500   49     140/ 12/ 12 1023.6F
KEWAUNEE LKSHORE 1400   47     130/  2/  5 1022.8R
NORTHPORT PIER   1400   49     130/ 10/ 12 1023.4S
N MID LAKE BUOY  1450   41 37  190/  2/  4 1024.2F         0
SISTER BAY LKSHO 1418   56     340/  6/  7   N/A
CHAMBERS ISLAND  1400   59     350/  2/  3 1023.4S
MENOMINEE LKSHOR 1400   55      70/  2/  3 1023.7F
$$


USA.gov is the U.S. government's official web portal to all federal, state and local government web resources and services.